FW0288 Weather Reports


time (UTC)temp
C
wind
direction
speed
KPH
gust
KPH
rain 1hr
cm
rain 24hr
cm
rain mn
cm
humidity
%
barometer
mb
20260507130036 9 360 1.6 14.5 0.00 1.19 0.00 42 1016.1
20260507124517 9 360 1.6 17.7 0.00 1.19 0.00 42 1016.1
20260507123013 8 360 1.6 17.7 0.00 1.19 0.00 43 1016.0
20260507121509 8 360 1.6 9.7 0.00 1.19 0.00 44 1016.2
20260507120007 8 360 1.6 14.5 0.00 1.19 0.00 44 1015.9
20260507114623 8 234 1.6 19.3 0.00 1.19 0.00 44 1016.0
20260507113100 8 360 3.2 14.5 0.00 1.19 0.00 43 1016.1
20260507111558 8 360 1.6 12.9 0.00 1.19 0.00 45 1016.1
20260507110056 7 360 3.2 12.9 0.00 1.19 0.00 47 1016.2
20260507104559 7 360 1.6 9.7 0.00 1.19 0.00 47 1016.4
20260507103053 7 360 3.2 9.7 0.00 1.19 0.00 47 1016.4
20260507101551 7 360 1.6 16.1 0.00 1.19 0.00 44 1016.5
20260507100057 7 360 3.2 12.9 0.00 1.19 0.00 47 1016.8
20260507094549 7 360 3.2 14.5 0.00 1.19 0.00 44 1017.0
20260507093045 7 360 3.2 16.1 0.00 1.19 0.00 44 1017.2
20260507091543 7 360 3.2 14.5 0.00 1.19 0.00 44 1017.3
20260507084545 6 360 0.0 3.2 0.00 1.19 0.00 48 1017.5
20260507083035 6 265 1.6 6.4 0.00 1.19 0.00 47 1017.4
20260507081533 5 360 0.0 3.2 0.00 1.19 0.00 48 1017.6
20260507080031 6 263 0.0 1.6 0.00 1.19 0.00 49 1017.9
20260507074528 5 230 0.0 6.4 0.00 1.19 0.00 50 1018.0
20260507073025 5 223 0.0 3.2 0.00 1.19 0.00 55 1018.2
20260507071528 4 232 0.0 1.6 0.00 1.19 0.00 65 1018.2
20260507070017 2 262 0.0 1.6 0.00 1.19 0.00 75 1018.5
20260507064517 1 244 0.0 3.2 0.00 1.19 0.00 83 1018.7
20260507063009 0 213 0.0 0.0 0.00 1.19 0.00 88 1018.8
20260507061505 0 176 0.0 0.0 0.00 1.19 0.00 88 1018.8
20260507060002 -1 176 0.0 0.0 0.00 1.19 0.00 87 1018.9
20260507054501 -1 360 0.0 0.0 0.00 1.19 1.19 86 1019.1
20260507053001 -1 360 0.0 0.0 0.00 1.19 1.19 86 1019.2
20260507051609 0 360 0.0 0.0 0.00 1.19 1.19 86 1019.4
20260507051502 0 360 0.0 0.0 0.00 1.19 1.19 85 1019.4
20260507044601 0 360 0.0 0.0 0.00 1.19 1.19 84 1019.6
20260507043100 0 360 0.0 0.0 0.00 1.19 1.19 83 1019.7
20260507041559 0 360 0.0 0.0 0.00 1.19 1.19 83 1019.8
20260507040058 0 360 0.0 0.0 0.00 1.19 1.19 82 1019.9
20260507034558 0 360 0.0 0.0 0.00 1.22 1.19 80 1020.0
20260507033057 1 360 0.0 0.0 0.00 1.22 1.19 80 1020.1
20260507031557 1 360 0.0 1.6 0.00 1.22 1.19 78 1020.0
20260507030056 1 360 0.0 0.0 0.00 1.22 1.19 76 1019.8
20260507024556 2 360 0.0 1.6 0.00 1.22 1.19 76 1019.8
20260507023055 2 171 0.0 1.6 0.00 1.22 1.19 76 1019.6
20260507021556 2 360 0.0 4.8 0.00 1.22 1.19 75 1019.5
20260507020108 2 360 0.0 1.6 0.00 1.22 1.19 75 1019.3
20260507014559 2 360 0.0 8.0 0.00 1.22 1.19 74 1019.3
20260507013053 2 360 0.0 4.8 0.00 1.22 1.19 72 1019.3
20260507011553 3 360 0.0 12.9 0.00 1.22 1.19 72 1019.4
20260507010104 3 360 1.6 8.0 0.00 1.22 1.19 71 1019.6
20260507004552 3 360 1.6 9.7 0.00 1.22 1.19 71 1019.6
20260507003051 2 153 1.6 6.4 0.00 1.22 1.19 72 1020.0
20260507001556 3 360 1.6 9.7 0.00 1.22 1.19 71 1020.0
20260507000051 3 153 0.0 1.6 0.00 1.22 1.19 71 1020.2
20260506234555 3 360 0.0 6.4 0.00 1.22 1.19 70 1020.3
20260506233049 2 360 1.6 14.5 0.00 1.22 1.19 71 1020.5
20260506231605 2 360 3.2 12.9 0.00 1.22 1.19 70 1020.4
20260506230105 2 118 3.2 9.7 0.00 1.22 1.19 72 1020.6
20260506224549 2 360 1.6 9.7 0.00 1.22 1.19 71 1020.7
20260506223047 2 360 0.0 9.7 0.00 1.22 1.19 72 1020.9
20260506221607 2 360 1.6 12.9 0.00 1.22 1.19 69 1021.1
20260506214549 2 165 0.0 4.8 0.03 1.24 1.19 70 1021.4
20260506213102 2 360 1.6 8.0 0.08 1.24 1.19 67 1021.7
20260506211541 2 189 3.2 8.0 0.15 1.24 1.19 70 1021.8
20260506210052 1 90 1.6 4.8 0.23 1.24 1.19 72 1021.9
20260506204538 1 115 0.0 4.8 0.28 1.27 1.17 75 1022.0
20260506203036 1 116 1.6 4.8 0.30 1.22 1.12 76 1022.2
20260506201539 1 360 0.0 3.2 0.36 1.14 1.04 78 1022.4
20260506200031 1 83 0.0 3.2 0.46 1.07 0.97 79 1022.3
20260506194530 1 360 0.0 3.2 0.53 0.99 0.89 79 1022.4
20260506193028 1 360 0.0 3.2 0.51 0.91 0.81 80 1022.4
20260506191527 0 360 0.0 4.8 0.43 0.79 0.69 83 1022.5
20260506190029 0 107 0.0 4.8 0.28 0.61 0.51 84 1022.6
20260506184525 0 117 0.0 6.4 0.18 0.48 0.36 87 1022.8
20260506183020 0 73 1.6 4.8 0.15 0.43 0.30 87 1022.9
20260506181518 0 22 0.0 3.2 0.13 0.38 0.25 90 1023.0
20260506180021 0 346 0.0 4.8 0.10 0.36 0.23 92 1023.0
20260506174522 0 330 0.0 1.6 0.08 0.30 0.18 93 1023.0
20260506173009 0 360 0.0 3.2 0.05 0.28 0.15 93 1022.9
20260506171508 0 306 0.0 3.2 0.05 0.25 0.13 93 1022.9
20260506170004 0 360 0.0 6.4 0.08 0.25 0.13 93 1022.8
20260506164503 0 307 0.0 8.0 0.05 0.25 0.10 93 1022.6
20260506163108 0 327 0.0 0.0 0.05 0.25 0.10 94 1022.2
20260506161558 0 325 0.0 0.0 0.05 0.23 0.08 94 1021.9
20260506160108 0 325 0.0 0.0 0.03 0.20 0.05 93 1021.7
20260506154555 0 360 0.0 0.0 0.03 0.23 0.05 94 1021.8
20260506153055 0 325 0.0 0.0 0.05 0.23 0.05 94 1021.7
20260506151552 0 360 0.0 0.0 0.03 0.20 0.03 94 1021.5
20260506150054 0 360 0.0 0.0 0.03 0.20 0.03 94 1021.4
20260506144559 0 360 0.0 0.0 0.03 0.30 0.03 94 1021.2
20260506143048 0 360 0.0 0.0 0.00 0.28 0.00 94 1021.2
20260506141547 -1 360 0.0 0.0 0.00 0.28 0.00 94 1020.9
20260506140044 -1 360 0.0 0.0 0.00 0.28 0.00 93 1020.9
20260506134543 -1 326 0.0 0.0 0.00 0.33 0.00 93 1020.9
20260506133040 -1 360 0.0 0.0 0.00 0.33 0.00 94 1020.6
20260506131543 0 360 0.0 0.0 0.00 0.33 0.00 94 1020.4